Location: Vinland
(47.7731°N, 122.6974°W)
Time: 11:21:00
(UTC+00:00)

Transit 2A Rocket - All Passes

Search period start: 26 March 2023 00:00
Search period end: 05 April 2023 00:00
Orbit: 583 x 916 km, 66.7° (Epoch: 25 March)

Date Brightness Start Highest point End Pass type
(mag) Time Alt. Az. Time Alt. Az. Time Alt. Az.
26 Mar - 01:15:07 10° NNW 01:18:55 17° NNE 01:22:43 10° ENE daylight
26 Mar - 02:57:22 10° NNW 03:03:12 43° NE 03:08:51 10° ESE visible
26 Mar - 04:40:07 10° NW 04:45:55 46° WSW 04:51:27 10° S visible
26 Mar - 17:38:03 10° SE 17:40:22 13° E 17:42:45 10° ENE daylight
26 Mar - 19:16:18 10° SSW 19:21:49 73° ESE 19:27:48 10° NE daylight
26 Mar - 21:00:01 10° W 21:05:01 30° NW 21:10:17 10° NNE daylight
26 Mar - 22:46:41 10° NW 22:49:41 14° NNW 22:52:44 10° NNE daylight
27 Mar - 00:31:50 10° NNW 00:35:00 14° NNE 00:38:09 10° NE daylight
27 Mar - 02:14:13 10° NNW 02:19:38 31° NE 02:24:54 10° E daylight
27 Mar - 03:56:42 10° NW 04:02:48 72° WSW 04:08:38 10° SSE visible
27 Mar - 05:41:35 10° WNW 05:44:20 13° W 05:47:01 10° SW visible
27 Mar - 18:33:29 10° S 18:38:43 46° ESE 18:44:22 10° NE daylight
27 Mar - 20:16:05 10° WSW 20:21:26 41° NW 20:27:08 10° NNE daylight
27 Mar - 22:02:08 10° WNW 22:05:45 16° NNW 22:09:26 10° NNE daylight
27 Mar - 23:48:21 10° NNW 23:51:00 13° N 23:53:40 10° NNE daylight
28 Mar - 01:31:05 10° NNW 01:35:56 24° NNE 01:40:42 10° E daylight
28 Mar - 03:13:24 10° NNW 03:19:34 77° NE 03:25:27 10° SE visible
28 Mar - 04:57:00 10° WNW 05:01:32 22° WSW 05:05:55 10° SSW visible
28 Mar - 17:51:06 10° SSE 17:55:45 28° ESE 18:00:43 10° NE daylight
28 Mar - 19:32:24 10° SW 19:37:58 60° NW 19:43:57 10° NNE daylight
28 Mar - 21:17:40 10° WNW 21:21:53 20° NNW 21:26:14 10° NNE daylight
28 Mar - 23:04:29 10° NNW 23:06:59 12° N 23:09:29 10° NNE daylight
29 Mar - 00:47:57 10° NNW 00:52:09 19° NNE 00:56:18 10° ENE daylight
29 Mar - 02:30:11 10° NNW 02:36:11 52° NE 02:41:58 10° SE daylight
29 Mar - 04:13:10 10° NW 04:18:38 35° WSW 04:23:51 10° S visible
29 Mar - 17:09:22 10° SE 17:12:55 17° ESE 17:16:38 10° ENE daylight
29 Mar - 18:49:02 10° SSW 18:54:39 89° WNW 19:00:43 10° NE daylight
29 Mar - 20:33:20 10° W 20:38:07 25° NNW 20:43:06 10° NNE daylight
29 Mar - 22:20:13 10° NW 22:22:57 13° N 22:25:44 10° NNE daylight
30 Mar - 00:04:44 10° NNW 00:08:15 15° NNE 00:11:45 10° NE daylight
30 Mar - 01:47:02 10° NNW 01:52:41 37° NE 01:58:10 10° ESE daylight
30 Mar - 03:29:38 10° NW 03:35:36 56° WSW 03:41:16 10° SSE visible
30 Mar - 18:06:00 10° SSW 18:11:28 60° ESE 18:17:21 10° NE daylight
30 Mar - 19:49:15 10° WSW 19:54:27 34° NW 19:59:57 10° NNE daylight
30 Mar - 21:35:42 10° NW 21:38:58 15° NNW 21:42:18 10° NNE daylight
30 Mar - 23:21:22 10° NNW 23:24:16 13° N 23:27:11 10° NE daylight
31 Mar - 01:03:53 10° NNW 01:09:03 27° NE 01:14:06 10° E daylight
31 Mar - 02:46:16 10° NW 02:52:26 85° WSW 02:58:17 10° SSE daylight
31 Mar - 04:30:28 10° WNW 04:34:08 17° WSW 04:37:41 10° SW visible
31 Mar - 17:23:20 10° S 17:28:24 37° ESE 17:33:51 10° NE daylight
31 Mar - 19:05:25 10° WSW 19:10:55 48° NW 19:16:47 10° NNE daylight
31 Mar - 20:51:10 10° WNW 20:55:04 18° NNW 20:59:03 10° NNE daylight
31 Mar - 22:37:43 10° NNW 22:40:15 13° N 22:42:49 10° NNE daylight
01 Apr - 00:20:44 10° NNW 00:25:18 21° NNE 00:29:48 10° ENE daylight
01 Apr - 02:03:01 10° NNW 02:09:08 65° NE 02:14:57 10° SE daylight
01 Apr - 03:46:18 10° NW 03:51:17 27° WSW 03:56:04 10° SSW visible
01 Apr - 16:41:11 10° SSE 16:45:29 23° ESE 16:50:03 10° ENE daylight
01 Apr - 18:21:52 10° SW 18:27:31 71° NW 18:33:34 10° NNE daylight
01 Apr - 20:06:44 10° W 20:11:14 22° NNW 20:15:53 10° NNE daylight
01 Apr - 21:53:39 10° NNW 21:56:13 13° N 21:58:49 10° NNE daylight
01 Apr - 23:37:33 10° NNW 23:41:27 17° NNE 23:45:19 10° ENE daylight
02 Apr - 01:19:48 10° NNW 01:25:41 45° NE 01:31:19 10° ESE daylight
02 Apr - 03:02:37 10° NW 03:08:20 43° WSW 03:13:45 10° S visible
02 Apr - 15:59:54 10° SE 16:02:42 14° E 16:05:35 10° ENE daylight
02 Apr - 17:38:37 10° SSW 17:44:14 77° ESE 17:50:17 10° NE daylight
02 Apr - 19:22:29 10° W 19:27:30 29° NW 19:32:44 10° NNE daylight
02 Apr - 21:09:14 10° NW 21:12:13 14° NNW 21:15:13 10° NNE daylight
02 Apr - 22:54:16 10° NNW 22:57:30 14° NNE 23:00:45 10° NE daylight
03 Apr - 00:36:39 10° NNW 00:42:07 32° NE 00:47:24 10° ESE daylight
03 Apr - 02:19:10 10° NW 02:25:14 68° WSW 02:30:58 10° SSE daylight
03 Apr - 04:04:25 10° WNW 04:06:40 12° W 04:08:51 10° WSW visible
03 Apr - 16:55:44 10° S 17:01:06 49° ESE 17:06:52 10° NE daylight
03 Apr - 18:38:30 10° WSW 18:43:53 39° NW 18:49:34 10° NNE daylight
03 Apr - 20:24:40 10° NW 20:28:14 16° NNW 20:31:53 10° NNE daylight
03 Apr - 22:10:47 10° NNW 22:13:31 13° N 22:16:14 10° NE daylight
03 Apr - 23:53:30 10° NNW 23:58:25 24° NNE 00:03:13 10° E daylight
04 Apr - 01:35:50 10° NNW 01:41:59 81° NE 01:47:49 10° SE daylight
04 Apr - 03:19:34 10° WNW 03:23:53 21° WSW 03:28:02 10° SSW visible
04 Apr - 16:13:15 10° S 16:18:05 31° ESE 16:23:15 10° NE daylight
04 Apr - 17:54:46 10° SW 18:00:23 57° NW 18:06:23 10° NNE daylight
04 Apr - 19:40:09 10° WNW 19:44:21 19° NNW 19:48:40 10° NNE daylight
04 Apr - 21:26:57 10° NNW 21:29:29 12° N 21:32:00 10° NNE daylight
04 Apr - 23:10:20 10° NNW 23:14:37 19° NNE 23:18:50 10° ENE daylight
